TimeAKST,TemperatureF,Dew PointF,Humidity,Sea Level PressureIn,VisibilityMPH,Wind Direction,Wind SpeedMPH,Gust SpeedMPH,PrecipitationIn,Events,Conditions,WindDirDegrees,DateUTC
12:16 AM,39.2,28.4,65,29.57,10.0,SE,38.0,46.0,N/A,,Overcast,140,2013-01-12 09:16:00
12:36 AM,39.2,28.4,65,29.56,10.0,SSE,40.3,51.8,N/A,,Overcast,150,2013-01-12 09:36:00
12:56 AM,39.2,28.4,65,29.56,10.0,SSE,40.3,49.5,N/A,,Mostly Cloudy,150,2013-01-12 09:56:00
1:16 AM,39.2,28.4,65,29.55,10.0,SSE,39.1,48.3,N/A,,Scattered Clouds,150,2013-01-12 10:16:00
1:36 AM,-9999,-9999,N/A,29.52,10.0,SE,43.7,50.6,N/A,,Clear,140,2013-01-12 10:36:00
1:56 AM,41.0,28.4,61,29.53,10.0,SE,43.7,54.1,N/A,,Clear,140,2013-01-12 10:56:00
2:16 AM,39.2,28.4,65,29.53,10.0,SE,42.6,49.5,N/A,,Clear,140,2013-01-12 11:16:00
2:36 AM,41.0,28.4,61,29.51,10.0,SSE,39.1,50.6,N/A,,Clear,150,2013-01-12 11:36:00
2:56 AM,-9999,-9999,N/A,29.52,10.0,SSE,33.4,44.9,N/A,,Clear,150,2013-01-12 11:56:00
3:16 AM,-9999,-9999,N/A,29.49,10.0,SSE,35.7,47.2,N/A,,Clear,150,2013-01-12 12:16:00
3:36 AM,-9999,-9999,N/A,29.51,10.0,SSE,33.4,44.9,N/A,,Clear,150,2013-01-12 12:36:00
3:56 AM,41.0,30.2,65,29.54,10.0,SSE,29.9,38.0,N/A,,Mostly Cloudy,160,2013-01-12 12:56:00
4:16 AM,41.0,32.0,70,29.52,10.0,SSE,28.8,33.4,N/A,,Scattered Clouds,150,2013-01-12 13:16:00
4:36 AM,41.0,30.2,65,29.50,10.0,SSE,33.4,39.1,N/A,,Partly Cloudy,150,2013-01-12 13:36:00
4:56 AM,-9999,-9999,N/A,29.47,10.0,SE,38.0,49.5,N/A,,Scattered Clouds,140,2013-01-12 13:56:00
5:16 AM,42.8,30.2,61,29.46,10.0,SSE,34.5,41.4,N/A,,Mostly Cloudy,150,2013-01-12 14:16:00
5:36 AM,-9999,-9999,N/A,29.43,10.0,SSE,33.4,40.3,0.01,,Mostly Cloudy,150,2013-01-12 14:36:00
5:56 AM,-9999,-9999,N/A,29.44,10.0,SSE,33.4,41.4,0.01,,Clear,160,2013-01-12 14:56:00
6:16 AM,-9999,-9999,N/A,29.42,10.0,SSE,31.1,41.4,N/A,,Partly Cloudy,150,2013-01-12 15:16:00
6:36 AM,-9999,-9999,N/A,29.41,10.0,SSE,40.3,44.9,N/A,,Clear,150,2013-01-12 15:36:00
6:56 AM,-9999,-9999,N/A,29.41,10.0,SSE,34.5,43.7,N/A,,Clear,150,2013-01-12 15:56:00
7:16 AM,-9999,-9999,N/A,29.41,10.0,SSE,34.5,43.7,N/A,,Mostly Cloudy,160,2013-01-12 16:16:00
7:36 AM,44.6,33.8,66,29.41,10.0,SSE,35.7,41.4,N/A,,Overcast,150,2013-01-12 16:36:00
7:56 AM,-9999,-9999,N/A,29.40,10.0,SSE,36.8,44.9,N/A,,Overcast,150,2013-01-12 16:56:00
8:16 AM,-9999,-9999,N/A,29.39,10.0,SE,36.8,43.7,N/A,,Overcast,140,2013-01-12 17:16:00
8:36 AM,-9999,-9999,N/A,29.40,10.0,SE,34.5,41.4,N/A,,Overcast,140,2013-01-12 17:36:00
8:56 AM,-9999,-9999,N/A,29.40,10.0,SE,32.2,38.0,N/A,,Overcast,140,2013-01-12 17:56:00
9:16 AM,46.4,35.6,66,29.42,10.0,SE,29.9,36.8,N/A,,Overcast,140,2013-01-12 18:16:00
9:36 AM,-9999,-9999,N/A,29.37,10.0,SE,38.0,43.7,N/A,,Mostly Cloudy,140,2013-01-12 18:36:00
9:56 AM,-9999,-9999,N/A,29.35,10.0,SE,40.3,49.5,N/A,,Clear,140,2013-01-12 18:56:00
10:16 AM,-9999,-9999,N/A,29.35,10.0,SE,36.8,43.7,N/A,,Clear,140,2013-01-12 19:16:00
10:36 AM,-9999,-9999,N/A,29.35,10.0,SE,41.4,47.2,N/A,,Clear,140,2013-01-12 19:36:00
10:56 AM,-9999,-9999,N/A,29.38,10.0,SSE,34.5,46.0,N/A,,Clear,150,2013-01-12 19:56:00
11:16 AM,-9999,-9999,N/A,29.37,10.0,SE,34.5,46.0,N/A,,Clear,140,2013-01-12 20:16:00
11:36 AM,-9999,-9999,N/A,29.38,10.0,SE,28.8,40.3,N/A,,Partly Cloudy,140,2013-01-12 20:36:00
11:56 AM,-9999,-9999,N/A,29.36,10.0,SE,34.5,41.4,N/A,,Scattered Clouds,140,2013-01-12 20:56:00
12:16 PM,-9999,-9999,N/A,29.33,10.0,SSE,39.1,46.0,N/A,,Partly Cloudy,150,2013-01-12 21:16:00
12:36 PM,46.4,35.6,66,29.32,10.0,SE,40.3,48.3,N/A,,Clear,140,2013-01-12 21:36:00
12:56 PM,-9999,-9999,N/A,29.34,10.0,SSE,36.8,43.7,N/A,,Clear,150,2013-01-12 21:56:00
1:16 PM,-9999,-9999,N/A,29.32,10.0,SE,35.7,41.4,N/A,,Clear,140,2013-01-12 22:16:00
1:36 PM,-9999,-9999,N/A,29.31,10.0,SE,40.3,50.6,N/A,,Clear,140,2013-01-12 22:36:00
1:56 PM,-9999,-9999,N/A,29.31,10.0,SE,35.7,47.2,N/A,,Scattered Clouds,140,2013-01-12 22:56:00
2:16 PM,-9999,-9999,N/A,29.30,10.0,SE,38.0,43.7,N/A,,Partly Cloudy,140,2013-01-12 23:16:00
2:36 PM,-9999,-9999,N/A,29.31,10.0,SE,28.8,38.0,N/A,,Clear,140,2013-01-12 23:36:00
2:56 PM,-9999,-9999,N/A,29.30,10.0,SE,39.1,48.3,N/A,,Clear,140,2013-01-12 23:56:00
3:16 PM,-9999,-9999,N/A,29.32,10.0,SE,32.2,41.4,N/A,,Clear,140,2013-01-13 00:16:00
3:36 PM,-9999,-9999,N/A,29.33,10.0,SE,33.4,41.4,N/A,,Clear,140,2013-01-13 00:36:00
3:56 PM,-9999,-9999,N/A,29.33,10.0,SE,32.2,40.3,N/A,,Clear,140,2013-01-13 00:56:00
4:16 PM,-9999,-9999,N/A,29.33,10.0,SE,34.5,40.3,N/A,,Clear,140,2013-01-13 01:16:00
4:36 PM,-9999,-9999,N/A,29.35,10.0,SSE,27.6,35.7,N/A,,Clear,150,2013-01-13 01:36:00
4:56 PM,-9999,-9999,N/A,29.33,10.0,SE,31.1,39.1,N/A,,Clear,140,2013-01-13 01:56:00
5:16 PM,-9999,-9999,N/A,29.34,10.0,SE,34.5,42.6,N/A,,Clear,140,2013-01-13 02:16:00
5:36 PM,46.4,35.6,66,29.38,10.0,SE,27.6,34.5,N/A,,Mostly Cloudy,140,2013-01-13 02:36:00
5:56 PM,-9999,-9999,N/A,29.37,10.0,SE,29.9,36.8,N/A,,Mostly Cloudy,140,2013-01-13 02:56:00
6:16 PM,-9999,-9999,N/A,29.38,10.0,SE,31.1,35.7,N/A,,Clear,130,2013-01-13 03:16:00
6:36 PM,46.4,35.6,66,29.39,10.0,SE,23.0,29.9,N/A,,Clear,130,2013-01-13 03:36:00
6:56 PM,44.6,35.6,71,29.42,10.0,SE,24.2,27.6,N/A,,Clear,140,2013-01-13 03:56:00
7:16 PM,44.6,35.6,71,29.43,10.0,SE,21.9,-,N/A,,Mostly Cloudy,140,2013-01-13 04:16:00
7:36 PM,46.4,35.6,66,29.43,10.0,SE,24.2,29.9,N/A,,Overcast,130,2013-01-13 04:36:00
7:56 PM,44.6,35.6,71,29.44,10.0,SE,21.9,26.5,N/A,,Overcast,140,2013-01-13 04:56:00
8:16 PM,46.4,35.6,66,29.44,10.0,SE,23.0,27.6,N/A,,Overcast,140,2013-01-13 05:16:00
8:36 PM,-9999,-9999,N/A,29.44,10.0,SE,25.3,33.4,N/A,,Scattered Clouds,140,2013-01-13 05:36:00
8:56 PM,46.4,35.6,66,29.44,10.0,SE,25.3,-,N/A,,Clear,140,2013-01-13 05:56:00
9:16 PM,46.4,35.6,66,29.46,10.0,SE,19.6,26.5,N/A,,Clear,130,2013-01-13 06:16:00
9:36 PM,44.6,33.8,66,29.43,10.0,SE,27.6,33.4,N/A,,Clear,140,2013-01-13 06:36:00
9:56 PM,-9999,-9999,N/A,29.43,10.0,SE,27.6,35.7,N/A,,Clear,140,2013-01-13 06:56:00
10:16 PM,-9999,-9999,N/A,29.43,10.0,SE,31.1,35.7,N/A,,Clear,130,2013-01-13 07:16:00
10:36 PM,-9999,-9999,N/A,29.46,10.0,SE,26.5,33.4,N/A,,Clear,140,2013-01-13 07:36:00
10:56 PM,44.6,32.0,61,29.47,10.0,SE,25.3,29.9,N/A,,Clear,140,2013-01-13 07:56:00
11:16 PM,42.8,30.2,61,29.48,10.0,SSE,20.7,-,N/A,,Clear,150,2013-01-13 08:16:00
11:36 PM,44.6,30.2,57,29.48,10.0,South,23.0,-,N/A,,Clear,170,2013-01-13 08:36:00
11:56 PM,44.6,30.2,57,29.48,10.0,South,26.5,34.5,N/A,,Clear,170,2013-01-13 08:56:00